Time,TemperatureF,DewpointF,PressureIn,WindDirection,WindDirectionDegrees,WindSpeedMPH,WindSpeedGustMPH,Humidity,HourlyPrecipIn,Conditions,Clouds,dailyrainin,SoftwareType,DateUTC
2013-02-26 00:05:00,71.8,63.4,29.65,South,180,0.0,-999.0,75,-99.99,,,0.00,Acu-Link.com,2013-02-26 05:05:00,
2013-02-26 00:20:00,71.6,63.2,29.64,South,180,1.7,-999.0,75,-99.99,,,0.00,Acu-Link.com,2013-02-26 05:20:00,
2013-02-26 00:36:00,71.2,63.2,29.64,ESE,112,3.7,-999.0,76,-99.99,,,0.00,Acu-Link.com,2013-02-26 05:36:00,
2013-02-26 00:51:00,71.1,63.5,29.63,SE,135,2.7,-999.0,77,-99.99,,,0.00,Acu-Link.com,2013-02-26 05:51:00,
2013-02-26 01:06:00,70.9,63.7,29.64,ESE,112,1.7,-999.0,78,-99.99,,,0.00,Acu-Link.com,2013-02-26 06:06:00,
2013-02-26 01:22:00,70.9,64.1,29.63,ENE,67,3.2,-999.0,79,-99.99,,,0.00,Acu-Link.com,2013-02-26 06:22:00,
2013-02-26 01:37:00,70.5,63.7,29.62,ESE,112,4.2,-999.0,79,-99.99,,,0.00,Acu-Link.com,2013-02-26 06:37:00,
2013-02-26 01:52:00,70.3,63.8,29.62,SE,135,2.2,-999.0,80,-99.99,,,0.00,Acu-Link.com,2013-02-26 06:52:00,
2013-02-26 02:07:00,70.3,64.2,29.62,ESE,112,2.7,-999.0,81,-99.99,,,0.00,Acu-Link.com,2013-02-26 07:07:00,
2013-02-26 02:22:00,70.0,64.2,29.62,ESE,112,3.7,-999.0,82,-99.99,,,0.00,Acu-Link.com,2013-02-26 07:22:00,
2013-02-26 02:37:00,70.0,64.6,29.61,SE,135,2.2,-999.0,83,-99.99,,,0.00,Acu-Link.com,2013-02-26 07:37:00,
2013-02-26 02:52:00,70.0,64.9,29.61,ESE,112,4.7,-999.0,84,-99.99,,,0.00,Acu-Link.com,2013-02-26 07:52:00,
2013-02-26 03:08:00,70.2,65.5,29.61,NE,45,2.2,-999.0,85,-99.99,,,0.00,Acu-Link.com,2013-02-26 08:08:00,
2013-02-26 03:23:00,70.5,65.8,29.60,ESE,112,2.2,-999.0,85,-99.99,,,0.00,Acu-Link.com,2013-02-26 08:23:00,
2013-02-26 03:38:00,70.3,65.6,29.59,SW,225,2.2,-999.0,85,-99.99,,,0.00,Acu-Link.com,2013-02-26 08:38:00,
2013-02-26 03:54:00,70.3,65.9,29.58,ESE,112,6.3,-999.0,86,-99.99,,,0.00,Acu-Link.com,2013-02-26 08:54:00,
2013-02-26 07:04:00,72.3,68.9,29.61,SSW,202,4.2,-999.0,89,-99.99,,,0.00,Acu-Link.com,2013-02-26 12:04:00,
2013-02-26 07:20:00,73.2,69.8,29.60,SSE,157,7.8,-999.0,89,-99.99,,,0.00,Acu-Link.com,2013-02-26 12:20:00,
2013-02-26 07:35:00,74.7,70.6,29.60,SW,225,4.2,-999.0,87,-99.99,,,0.00,Acu-Link.com,2013-02-26 12:35:00,
2013-02-26 07:50:00,74.3,69.5,29.62,SSW,202,2.7,-999.0,85,-99.99,,,0.00,Acu-Link.com,2013-02-26 12:50:00,
2013-02-26 08:05:00,74.5,69.7,29.63,East,90,7.3,-999.0,85,-99.99,,,0.00,Acu-Link.com,2013-02-26 13:05:00,
2013-02-26 08:20:00,75.0,69.8,29.62,ESE,112,3.2,-999.0,84,-99.99,,,0.00,Acu-Link.com,2013-02-26 13:20:00,
2013-02-26 08:35:00,75.2,69.7,29.63,West,270,5.8,-999.0,83,-99.99,,,0.00,Acu-Link.com,2013-02-26 13:35:00,
2013-02-26 08:50:00,75.4,69.5,29.63,SSW,202,4.7,-999.0,82,-99.99,,,0.00,Acu-Link.com,2013-02-26 13:50:00,
2013-02-26 09:05:00,75.9,69.3,29.63,ESE,112,7.3,-999.0,80,-99.99,,,0.00,Acu-Link.com,2013-02-26 14:05:00,
2013-02-26 09:21:00,76.6,69.2,29.60,NE,45,4.2,-999.0,78,-99.99,,,0.00,Acu-Link.com,2013-02-26 14:21:00,
2013-02-26 09:36:00,77.4,68.4,29.62,East,90,5.3,-999.0,74,-99.99,,,0.00,Acu-Link.com,2013-02-26 14:36:00,
2013-02-26 09:51:00,77.0,68.1,29.65,SSW,202,5.8,-999.0,74,-99.99,,,0.00,Acu-Link.com,2013-02-26 14:51:00,
2013-02-26 10:07:00,76.5,68.0,29.66,SSW,202,5.8,-999.0,75,-99.99,,,0.00,Acu-Link.com,2013-02-26 15:07:00,
2013-02-26 10:22:00,76.1,68.0,29.65,SW,225,3.7,-999.0,76,-99.99,,,0.00,Acu-Link.com,2013-02-26 15:22:00,
2013-02-26 10:37:00,75.2,68.6,29.66,SSW,202,5.3,-999.0,80,-99.99,,,0.00,Acu-Link.com,2013-02-26 15:37:00,
2013-02-26 10:52:00,75.2,69.0,29.67,SSW,202,4.2,-999.0,81,-99.99,,,0.00,Acu-Link.com,2013-02-26 15:52:00,
2013-02-26 11:08:00,74.1,68.9,29.66,South,180,3.2,-999.0,84,-99.99,,,0.02,Acu-Link.com,2013-02-26 16:08:00,
2013-02-26 11:23:00,74.1,69.3,29.66,South,180,4.2,-999.0,85,-99.99,,,0.03,Acu-Link.com,2013-02-26 16:23:00,
2013-02-26 11:38:00,73.8,69.7,29.66,WSW,247,3.7,-999.0,87,-99.99,,,0.06,Acu-Link.com,2013-02-26 16:38:00,
2013-02-26 11:53:00,74.5,70.4,29.65,SSW,202,4.7,-999.0,87,-99.99,,,0.07,Acu-Link.com,2013-02-26 16:53:00,
2013-02-26 12:08:00,74.5,70.4,29.64,South,180,3.2,-999.0,87,-99.99,,,0.07,Acu-Link.com,2013-02-26 17:08:00,
2013-02-26 12:23:00,74.7,70.9,29.65,South,180,4.7,-999.0,88,-99.99,,,0.07,Acu-Link.com,2013-02-26 17:23:00,
2013-02-26 12:38:00,76.5,72.0,29.64,SSW,202,6.3,-999.0,86,-99.99,,,0.07,Acu-Link.com,2013-02-26 17:38:00,
2013-02-26 12:54:00,79.0,72.3,29.63,SSW,202,3.7,-999.0,80,-99.99,,,0.07,Acu-Link.com,2013-02-26 17:54:00,
2013-02-26 13:09:00,77.7,70.3,29.64,South,180,6.8,-999.0,78,-99.99,,,0.07,Acu-Link.com,2013-02-26 18:09:00,
2013-02-26 13:24:00,72.0,66.2,29.64,SSW,202,4.7,-999.0,82,-99.99,,,0.07,Acu-Link.com,2013-02-26 18:24:00,
2013-02-26 13:39:00,70.9,66.2,29.64,SW,225,4.2,-999.0,85,-99.99,,,0.13,Acu-Link.com,2013-02-26 18:39:00,
2013-02-26 13:55:00,71.2,66.5,29.63,SSW,202,2.2,-999.0,85,-99.99,,,0.13,Acu-Link.com,2013-02-26 18:55:00,
2013-02-26 14:10:00,70.7,66.3,29.63,South,180,1.7,-999.0,86,-99.99,,,0.13,Acu-Link.com,2013-02-26 19:10:00,
2013-02-26 14:25:00,71.4,67.7,29.61,South,180,6.3,-999.0,88,-99.99,,,0.15,Acu-Link.com,2013-02-26 19:25:00,
2013-02-26 14:40:00,71.8,68.0,29.62,South,180,7.3,-999.0,88,-99.99,,,0.16,Acu-Link.com,2013-02-26 19:40:00,
2013-02-26 14:56:00,72.3,68.5,29.61,South,180,7.3,-999.0,88,-99.99,,,0.16,Acu-Link.com,2013-02-26 19:56:00,
2013-02-26 15:11:00,72.7,68.6,29.61,SSW,202,4.2,-999.0,87,-99.99,,,0.16,Acu-Link.com,2013-02-26 20:11:00,
2013-02-26 15:26:00,73.2,69.1,29.61,SSW,202,3.7,-999.0,87,-99.99,,,0.16,Acu-Link.com,2013-02-26 20:26:00,
2013-02-26 15:41:00,73.8,69.7,29.61,SSW,202,3.2,-999.0,87,-99.99,,,0.16,Acu-Link.com,2013-02-26 20:41:00,
2013-02-26 15:56:00,74.8,70.3,29.62,South,180,2.7,-999.0,86,-99.99,,,0.16,Acu-Link.com,2013-02-26 20:56:00,
2013-02-26 16:12:00,75.0,70.2,29.62,SW,225,3.2,-999.0,85,-99.99,,,0.16,Acu-Link.com,2013-02-26 21:12:00,
2013-02-26 16:27:00,75.0,69.5,29.62,SSW,202,1.7,-999.0,83,-99.99,,,0.16,Acu-Link.com,2013-02-26 21:27:00,
2013-02-26 16:42:00,74.5,68.6,29.62,SSW,202,4.7,-999.0,82,-99.99,,,0.16,Acu-Link.com,2013-02-26 21:42:00,
2013-02-26 16:57:00,75.0,68.8,29.63,SSW,202,3.7,-999.0,81,-99.99,,,0.16,Acu-Link.com,2013-02-26 21:57:00,
2013-02-26 17:13:00,74.8,67.8,29.62,SSW,202,2.7,-999.0,79,-99.99,,,0.16,Acu-Link.com,2013-02-26 22:13:00,
2013-02-26 17:28:00,74.7,67.0,29.63,SSW,202,3.7,-999.0,77,-99.99,,,0.16,Acu-Link.com,2013-02-26 22:28:00,
2013-02-26 17:43:00,73.2,64.0,29.63,SSE,157,1.7,-999.0,73,-99.99,,,0.16,Acu-Link.com,2013-02-26 22:43:00,
2013-02-26 17:59:00,72.1,63.7,29.64,SSW,202,3.2,-999.0,75,-99.99,,,0.16,Acu-Link.com,2013-02-26 22:59:00,
2013-02-26 18:14:00,71.6,64.0,29.64,SW,225,1.7,-999.0,77,-99.99,,,0.16,Acu-Link.com,2013-02-26 23:14:00,
2013-02-26 18:29:00,70.7,64.2,29.65,SW,225,1.7,-999.0,80,-99.99,,,0.16,Acu-Link.com,2013-02-26 23:29:00,
2013-02-26 18:45:00,70.2,64.4,29.65,SW,225,2.7,-999.0,82,-99.99,,,0.16,Acu-Link.com,2013-02-26 23:45:00,
2013-02-26 19:00:00,69.6,63.9,29.66,SW,225,2.2,-999.0,82,-99.99,,,0.16,Acu-Link.com,2013-02-27 00:00:00,
2013-02-26 19:15:00,68.7,63.0,29.66,SW,225,1.1,-999.0,82,-99.99,,,0.16,Acu-Link.com,2013-02-27 00:15:00,
2013-02-26 19:30:00,68.0,62.3,29.67,SW,225,1.7,-999.0,82,-99.99,,,0.16,Acu-Link.com,2013-02-27 00:30:00,
2013-02-26 19:45:00,67.3,61.6,29.68,SSW,202,0.0,-999.0,82,-99.99,,,0.16,Acu-Link.com,2013-02-27 00:45:00,
2013-02-26 20:00:00,66.7,62.4,29.68,SW,225,0.0,-999.0,86,-99.99,,,0.16,Acu-Link.com,2013-02-27 01:00:00,
2013-02-26 20:16:00,66.7,63.0,29.69,SSW,202,1.7,-999.0,88,-99.99,,,0.16,Acu-Link.com,2013-02-27 01:16:00,
2013-02-26 20:31:00,66.4,62.7,29.68,SW,225,2.7,-999.0,88,-99.99,,,0.16,Acu-Link.com,2013-02-27 01:31:00,
2013-02-26 20:46:00,66.0,62.3,29.69,SW,225,2.2,-999.0,88,-99.99,,,0.16,Acu-Link.com,2013-02-27 01:46:00,
2013-02-26 21:01:00,65.8,62.1,29.69,SW,225,1.7,-999.0,88,-99.99,,,0.16,Acu-Link.com,2013-02-27 02:01:00,
2013-02-26 21:32:00,65.3,61.7,29.70,SSW,202,2.2,-999.0,88,-99.99,,,0.16,Acu-Link.com,2013-02-27 02:32:00,
2013-02-26 21:47:00,65.3,61.7,29.71,SSW,202,2.7,-999.0,88,-99.99,,,0.16,Acu-Link.com,2013-02-27 02:47:00,
2013-02-26 22:03:00,65.3,62.0,29.71,SSW,202,2.7,-999.0,89,-99.99,,,0.16,Acu-Link.com,2013-02-27 03:03:00,
2013-02-26 22:18:00,65.3,62.0,29.71,SSW,202,2.2,-999.0,89,-99.99,,,0.16,Acu-Link.com,2013-02-27 03:18:00,
2013-02-26 22:33:00,65.3,62.0,29.72,SSW,202,2.2,-999.0,89,-99.99,,,0.16,Acu-Link.com,2013-02-27 03:33:00,
2013-02-26 22:48:00,64.8,61.5,29.72,SSW,202,0.0,-999.0,89,-99.99,,,0.16,Acu-Link.com,2013-02-27 03:48:00,
2013-02-26 23:03:00,64.8,61.8,29.72,SSW,202,1.7,-999.0,90,-99.99,,,0.16,Acu-Link.com,2013-02-27 04:03:00,
2013-02-26 23:19:00,64.6,61.6,29.73,SW,225,1.7,-999.0,90,-99.99,,,0.16,Acu-Link.com,2013-02-27 04:19:00,
2013-02-26 23:34:00,64.2,61.2,29.73,SSW,202,1.7,-999.0,90,-99.99,,,0.16,Acu-Link.com,2013-02-27 04:34:00,
2013-02-26 23:49:00,63.7,60.7,29.73,SSW,202,1.7,-999.0,90,-99.99,,,0.16,Acu-Link.com,2013-02-27 04:49:00,